Starlink 2494

operational
NORAD ID: 48487 Int'l Des: 2021-040 Owner: SPXS Country: US Constellation: starlink
LEOCIRCULARSTARLINK_TYPE

About Starlink 2494

Description loading...

Live Position

Loading 3D Globe...

Upcoming Passes

Altitude History

Altitude vs Time

uPlot chart will show altitude changes over time

Two-Line Element Set

1 48487U 21040BM 25261.00072635 .00001759 00000-0 13693-3 0 9994
2 48487 53.0536 256.8519 0001420 86.8459 273.2692 15.06411759240329
Epoch: Sep 18, 2025 • Age: 19 hours

Current Status

Altitude 547.3 km
Velocity 7.59 km/s
Sub-Earth Point 5.93°N, 27.6°W
Launch Date May 9, 2021
Age 4.3 years
Type internet

Technical Details

Classification Payload
Mass 260.00 kg
Dry Mass 248.00 kg
Total Mass 260.00 kg
Length 0.20 m
Diameter 2.80 m
Span 9.00 m
Shape Box + pan
Manufacturer SPXS
Bus Type Starlink
Phase Status In Orbit
Owner/State SPXS/US

Large Constellations

Loading constellations...